OPS 4682 DEB, 38457

Orbit data source: Space-Track

OPS 4682 DEB, 38457 is space debris in LEO originally from a launch on Sat, 03 Apr 1965 UTC launched from the Air Force Western Test Range (AFWTR). Debris objects in space refer to the collection of defunct objects orbiting the Earth. Examples of debris include non-operational satellites, rocket bodies, and fragments generated from explosions, collisions, or faulty payload assembly.

Loading next visibility...
Identifier
38457, 1965-027FN
Orbit
LEO
Country
Flag of USUS
Related business
Manufacturer
Unknown
Mission
Spacecraft
Bus & Motor
Unknown
Mass
Unknown
Launch date (UTC)
1965-04-03 (61 years ago)
Launch vehicle
Unknown
Launch site
Air Force Western Test Range (AFWTR)
Object type
Payload
Rocket body
Debris
Shape & HBR
Unknown shape, 0.1 m
Radar Cross Section
Medium (>0.1 m² and <1 m²)

Expand to show TLE details & history
Last TLE update: 3 days ago

TLE from 3 days ago
0 OPS 4682 DEB
1 38457U 65027FN  26205.66796172  .00000594  00000-0  19874-2 0  9995
2 38457  90.2293   3.0628 0028707 282.9760  76.8156 12.98554777616620
Epoch: 2026-07-24T16:01Z
TLE epoch observation values (Epoch: 2026-07-24T16:01:51.892Z)
Latitude
-0.00005°
Longitude
-179.79471°
Altitude
1,265.688 km
Speed
7.225 km/s
True Right ascension
00h 12m 15s
True Declination
0° 00' 00"
Sunlit
Object was in daylight at epoch
Visualization orbit readout
Latitude
Unknown
Longitude
Unknown
Altitude
Unknown
Speed
Unknown
Apparent Right ascension
Unknown
Apparent Declination
Unknown
Sunlit
N/A
Visualization observer readout
Local Sidereal Time
18:59:23
Azimuth
Unknown
Elevation
Unknown
Doppler factor
Unknown
Orbital elements
Apogee altitude
1,286.824 km
Perigee altitude
1,242.943 km
Semi-major axis
7,643.02 km
Eccentricity
0.00287
Inclination
90.2293°
RAAN
3.0628°
Arg. of periapsis
282.976°
True anomaly
77.13615°
Mean anomaly
76.8156°
Eccentric anomaly
76.97585°
Mean motion
3.24822 °/min
Orbital period
110.83 mins
BSTAR
0.0019874
Loading maneuver chart data...
Computing Atmospheric mass density...
Loading historical data...
Loading historical data...
Loading historical data...
Loading historical data...
Loading historical data...
Loading historical data...
Loading historical data...

Documentation

Showing up to 5 results
|